Location: Altleiningen
(49.5078°N, 8.0741°E)
Time: 18:30:15
(UTC+00:00)

SWAS - Pass Details

Date: 14 June 2025
Orbit: 545 x 550 km, 69.9° (Epoch: 12 July)

Event Time Altitude Azimuth Distance (km) Brightness Sun altitude
Rises 22:16:38 0° 329° (NNW) 2,722 9.5 -15.5°
Reaches altitude 10° 22:18:50 10° 329° (NNW) 1,825 8.2 -15.6°
Maximum altitude 22:22:55 87° 244° (WSW) 554 4.2 -15.7°
Enters shadow 22:24:48 31° 153° (SSE) 978 5.0 -15.8°
